Back to catalog

STARLINK-31928

AliveCommunicationsVLEO
NORAD 59897·PAYLOAD·🇺🇸 United States

Launched May 28, 2024 from Cape Canaveral Space Force Station

Loading…

Next Passes (next 24 hours)

TLE

FreshSource: CelesTrak SupGP

Epoch: Sep 14, 2026, 13:52 UTC

1 59897C 24100N   26257.57826389  .00042930  00000+0  15552-2 0  2579
2 59897  43.0020 138.9464 0001461 259.5309  26.9229 15.27550213    11

Track STARLINK-31928 in real time with AllMySat

Download on the App Store